This is the latest recevied weather packets stored in our database for station/object KE5QKR. If no packets are shown the sender has not sent any weather packets the latest 10 day(s).
| Time | Temp. | Humidity | Pressure | Rain* | Wind** | Luminosity | Snow |
|---|---|---|---|---|---|---|---|
| 1778253862 | 19.44° C | 92% | 1013.3 hPa | 0 mm | - | 208 W/m² | - |
| 1778253558 | 19.44° C | 92% | 1013.1 hPa | 0 mm | - | 96 W/m² | - |
| 1778253255 | 19.44° C | 92% | 1013.2 hPa | 0 mm | - | 70 W/m² | - |
| 1778252952 | 19.44° C | 92% | 1012.9 hPa | 0 mm | - | 112 W/m² | - |
| 1778252648 | 19.44° C | 92% | 1012.9 hPa | 0 mm | - | 194 W/m² | - |
| 1778252344 | 19.44° C | 92% | 1013.3 hPa | 0 mm | - | 133 W/m² | - |
| 1778252040 | 18.89° C | 92% | 1013.1 hPa | 0 mm | - | 252 W/m² | - |
| 1778251738 | 18.89° C | 93% | 1012.9 hPa | 0 mm | - | 191 W/m² | - |
| 1778251436 | 18.89° C | 93% | 1013 hPa | 0 mm | - | 115 W/m² | - |
| 1778251133 | 18.89° C | 93% | 1013 hPa | 0 mm | - | 147 W/m² | - |
| 1778250830 | 18.33° C | 94% | 1013.1 hPa | 0 mm | - | 159 W/m² | - |
| 1778250527 | 18.33° C | 94% | 1013.2 hPa | 0 mm | - | 153 W/m² | - |
| 1778250224 | 18.33° C | 95% | 1013.2 hPa | 0 mm | - | 147 W/m² | - |
| 1778249920 | 18.33° C | 95% | 1013.2 hPa | 0 mm | - | 164 W/m² | - |
| 1778249617 | 17.78° C | 95% | 1013.2 hPa | 0 mm | - | 165 W/m² | - |
| 1778249315 | 17.78° C | 95% | 1013.3 hPa | 0 mm | - | 75 W/m² | - |
| 1778249011 | 17.78° C | 95% | 1013.7 hPa | 0 mm | - | 70 W/m² | - |
| 1778248707 | 17.78° C | 95% | 1013.4 hPa | 0 mm | - | 55 W/m² | - |
| 1778248404 | 17.78° C | 95% | 1013.9 hPa | 0 mm | - | 34 W/m² | - |
| 1778248100 | 17.78° C | 95% | 1013.7 hPa | 0 mm | - | 32 W/m² | - |
| 1778247797 | 17.78° C | 94% | 1013.6 hPa | 0 mm | - | 22 W/m² | - |
| 1778247493 | 18.33° C | 94% | 1013.6 hPa | 0 mm | - | 29 W/m² | - |
| 1778247191 | 18.33° C | 94% | 1013.6 hPa | 0 mm | - | 39 W/m² | - |
| 1778246888 | 18.33° C | 94% | 1013.6 hPa | 0 mm | - | 41 W/m² | - |
| 1778246586 | 18.33° C | 94% | 1013.7 hPa | 0 mm | - | 21 W/m² | - |
* Rain latest hour (hover to see other rain measurements)
** Current wind speed in m/s (hover to see current wind gust speed)